When you browse on this site, cookies collect data to enhance your experience and personalize the content and advertising you see.
Visit our Privacy Policy to learn more. By continuing to use the site, you agree to this use of cookies and data.
  • In Romania
  • List of Countries
  • For 7 days
  • Water Temperature
  • Satellite Maps
  • Weather Map
  • Weather Widgets
  • user-avatar
    Login

    Hourly Weather Pluzhenicy

    Today, 23 July, Tuesday

    Time Temperature Precipitation Wind Pressure Humidity
    00:00 +16°C° 0 mm 1 mps 752 mmHg 83%
    01:00 +16°C° 0 mm 1 mps 752 mmHg 85%
    02:00 +15°C° 0 mm 1 mps 752 mmHg 91%
    03:00 +15°C° 0 mm 1 mps 752 mmHg 91%
    04:00 +15°C° 0 mm 1 mps 752 mmHg 90%
    05:00 +15°C° 0 mm 1 mps 752 mmHg 90%
    06:00 +17°C° 0 mm 2 mps 752 mmHg 85%
    07:00 +18°C° 0 mm 2 mps 752 mmHg 81%
    08:00 +20°C° 0 mm 2 mps 752 mmHg 76%
    09:00 +21°C° 0.2 mm 2 mps 752 mmHg 73%
    10:00 +22°C° 0.2 mm 3 mps 752 mmHg 70%
    11:00 +24°C° 0.2 mm 3 mps 751 mmHg 66%
    12:00 +24°C° 0.1 mm 3 mps 751 mmHg 65%
    13:00 +24°C° 0.1 mm 3 mps 751 mmHg 64%
    14:00 +24°C° 0.1 mm 3 mps 751 mmHg 63%
    15:00 +24°C° 0.2 mm 3 mps 751 mmHg 64%
    16:00 +25°C° 0.2 mm 3 mps 752 mmHg 64%
    17:00 +25°C° 0.2 mm 2 mps 752 mmHg 65%
    18:00 +23°C° 0.2 mm 2 mps 752 mmHg 72%
    19:00 +20°C° 0.2 mm 2 mps 752 mmHg 79%
    20:00 +18°C° 0.2 mm 2 mps 751 mmHg 86%
    21:00 +18°C° 0 mm 1 mps 752 mmHg 87%
    22:00 +16°C° 0 mm 1 mps 752 mmHg 89%
    23:00 +16°C° 0 mm 1 mps 752 mmHg 90%

    Tomorrow, 24 July, Wednesday

    Time Temperature Precipitation Wind Pressure Humidity
    00:00 +15°C° 0 mm 1 mps 752 mmHg 90%
    01:00 +15°C° 0 mm 1 mps 752 mmHg 91%
    02:00 +14°C° 0 mm 1 mps 752 mmHg 91%
    03:00 +15°C° 0 mm 1 mps 753 mmHg 91%
    04:00 +15°C° 0 mm 1 mps 753 mmHg 90%
    05:00 +15°C° 0 mm 2 mps 753 mmHg 89%
    06:00 +16°C° 0 mm 2 mps 753 mmHg 82%
    07:00 +18°C° 0 mm 2 mps 753 mmHg 75%
    08:00 +19°C° 0 mm 3 mps 753 mmHg 68%
    09:00 +20°C° 0 mm 3 mps 753 mmHg 62%
    10:00 +22°C° 0 mm 4 mps 753 mmHg 56%
    11:00 +23°C° 0 mm 4 mps 754 mmHg 51%
    12:00 +23°C° 0 mm 4 mps 753 mmHg 50%
    13:00 +23°C° 0 mm 5 mps 753 mmHg 49%
    14:00 +25°C° 0 mm 5 mps 753 mmHg 49%
    15:00 +23°C° 0 mm 4 mps 753 mmHg 51%
    16:00 +23°C° 0 mm 4 mps 753 mmHg 54%
    17:00 +22°C° 0 mm 4 mps 753 mmHg 57%
    18:00 +21°C° 0 mm 3 mps 753 mmHg 63%
    19:00 +19°C° 0 mm 2 mps 753 mmHg 70%
    20:00 +19°C° 0 mm 1 mps 753 mmHg 76%
    21:00 +18°C° 0 mm 1 mps 753 mmHg 78%
    22:00 +18°C° 0 mm 1 mps 754 mmHg 79%
    23:00 +16°C° 0 mm 1 mps 754 mmHg 80%

    Day after tomorrow, 25 July, Thursday

    Time Temperature Precipitation Wind Pressure Humidity
    00:00 +16°C° 0 mm 1 mps 754 mmHg 83%
    01:00 +15°C° 0 mm 1 mps 754 mmHg 87%
    02:00 +15°C° 0 mm 1 mps 753 mmHg 90%
    03:00 +14°C° 0.1 mm 1 mps 754 mmHg 91%
    04:00 +14°C° 0.1 mm 2 mps 754 mmHg 92%
    05:00 +13°C° 0.1 mm 2 mps 754 mmHg 93%
    06:00 +15°C° 0 mm 2 mps 754 mmHg 87%
    07:00 +16°C° 0 mm 2 mps 754 mmHg 81%
    08:00 +17°C° 0 mm 2 mps 753 mmHg 75%
    09:00 +19°C° 0 mm 2 mps 753 mmHg 69%
    10:00 +20°C° 0 mm 2 mps 753 mmHg 64%
    11:00 +21°C° 0 mm 3 mps 753 mmHg 59%
    12:00 +22°C° 0.1 mm 3 mps 753 mmHg 60%
    13:00 +22°C° 0.1 mm 3 mps 753 mmHg 62%
    14:00 +22°C° 0.1 mm 3 mps 753 mmHg 64%
    15:00 +21°C° 0.1 mm 3 mps 753 mmHg 72%
    16:00 +19°C° 0.1 mm 3 mps 753 mmHg 80%
    17:00 +18°C° 0.1 mm 2 mps 753 mmHg 87%
    18:00 +17°C° 0 mm 2 mps 754 mmHg 89%
    19:00 +17°C° 0 mm 2 mps 754 mmHg 91%
    20:00 +17°C° 0 mm 2 mps 754 mmHg 93%
    21:00 +16°C° 0 mm 2 mps 754 mmHg 95%
    22:00 +15°C° 0 mm 2 mps 754 mmHg 96%
    23:00 +15°C° 0 mm 1 mps 754 mmHg 98%

    26 July, Friday

    Time Temperature Precipitation Wind Pressure Humidity
    00:00 +15°C° 0 mm 2 mps 754 mmHg 98%
    01:00 +15°C° 0 mm 2 mps 755 mmHg 99%
    02:00 +15°C° 0 mm 2 mps 755 mmHg 99%
    03:00 +15°C° 0 mm 2 mps 755 mmHg 99%
    04:00 +16°C° 0 mm 2 mps 755 mmHg 99%
    05:00 +16°C° 0 mm 2 mps 756 mmHg 98%
    06:00 +17°C° 0 mm 2 mps 756 mmHg 93%
    07:00 +19°C° 0 mm 3 mps 756 mmHg 88%
    08:00 +20°C° 0 mm 3 mps 756 mmHg 84%
    09:00 +22°C° 0 mm 3 mps 756 mmHg 76%
    10:00 +24°C° 0 mm 3 mps 756 mmHg 69%
    11:00 +26°C° 0 mm 3 mps 756 mmHg 62%
    12:00 +26°C° 0.2 mm 3 mps 756 mmHg 61%
    13:00 +27°C° 0.2 mm 3 mps 756 mmHg 61%
    14:00 +28°C° 0.2 mm 3 mps 756 mmHg 60%
    15:00 +27°C° 0.3 mm 3 mps 755 mmHg 67%
    16:00 +27°C° 0.3 mm 2 mps 755 mmHg 73%
    17:00 +27°C° 0.3 mm 2 mps 755 mmHg 80%
    18:00 +25°C° 0.3 mm 2 mps 755 mmHg 85%
    19:00 +24°C° 0.3 mm 2 mps 755 mmHg 89%
    20:00 +21°C° 0.3 mm 2 mps 756 mmHg 94%
    21:00 +20°C° 0 mm 2 mps 756 mmHg 95%
    22:00 +20°C° 0 mm 2 mps 756 mmHg 96%
    23:00 +19°C° 0 mm 2 mps 756 mmHg 97%

    27 July, Saturday

    Time Temperature Precipitation Wind Pressure Humidity
    00:00 +19°C° 0 mm 2 mps 756 mmHg 97%
    01:00 +18°C° 0 mm 2 mps 756 mmHg 97%
    02:00 +18°C° 0 mm 2 mps 755 mmHg 97%
    03:00 +18°C° 0 mm 2 mps 755 mmHg 97%
    04:00 +18°C° 0 mm 2 mps 755 mmHg 97%
    05:00 +18°C° 0 mm 2 mps 755 mmHg 97%
    06:00 +19°C° 0 mm 2 mps 755 mmHg 93%
    07:00 +20°C° 0 mm 3 mps 755 mmHg 89%
    08:00 +22°C° 0 mm 3 mps 755 mmHg 85%
    09:00 +25°C° 0 mm 3 mps 755 mmHg 74%
    10:00 +27°C° 0 mm 3 mps 755 mmHg 64%
    11:00 +29°C° 0 mm 4 mps 755 mmHg 53%
    12:00 +29°C° 0 mm 4 mps 754 mmHg 51%
    13:00 +29°C° 0 mm 4 mps 754 mmHg 50%
    14:00 +30°C° 0 mm 4 mps 753 mmHg 48%
    15:00 +29°C° 0 mm 3 mps 753 mmHg 54%
    16:00 +28°C° 0 mm 3 mps 753 mmHg 61%
    17:00 +27°C° 0 mm 2 mps 753 mmHg 67%
    18:00 +26°C° 0.1 mm 2 mps 753 mmHg 72%
    19:00 +24°C° 0.1 mm 2 mps 753 mmHg 78%
    20:00 +23°C° 0.1 mm 2 mps 753 mmHg 84%
    21:00 +21°C° 0 mm 2 mps 753 mmHg 85%
    22:00 +21°C° 0 mm 2 mps 753 mmHg 86%
    23:00 +20°C° 0 mm 2 mps 753 mmHg 88%

    28 July, Sunday

    Time Temperature Precipitation Wind Pressure Humidity
    00:00 +19°C° 0 mm 2 mps 753 mmHg 90%
    01:00 +19°C° 0 mm 2 mps 752 mmHg 92%
    02:00 +18°C° 0 mm 2 mps 752 mmHg 94%
    03:00 +18°C° 0 mm 3 mps 753 mmHg 93%
    04:00 +18°C° 0 mm 3 mps 753 mmHg 92%
    05:00 +17°C° 0 mm 4 mps 753 mmHg 90%
    06:00 +18°C° 0 mm 4 mps 753 mmHg 83%
    07:00 +18°C° 0 mm 4 mps 753 mmHg 77%
    08:00 +18°C° 0 mm 4 mps 753 mmHg 70%
    09:00 +19°C° 0 mm 4 mps 753 mmHg 66%
    10:00 +19°C° 0 mm 4 mps 753 mmHg 62%
    11:00 +20°C° 0 mm 4 mps 753 mmHg 58%
    12:00 +20°C° 0 mm 4 mps 753 mmHg 55%
    13:00 +21°C° 0 mm 4 mps 753 mmHg 51%
    14:00 +21°C° 0 mm 4 mps 753 mmHg 47%
    15:00 +21°C° 0 mm 4 mps 753 mmHg 48%
    16:00 +20°C° 0 mm 4 mps 753 mmHg 49%
    17:00 +19°C° 0 mm 4 mps 753 mmHg 51%
    18:00 +18°C° 0 mm 4 mps 753 mmHg 58%
    19:00 +16°C° 0 mm 3 mps 753 mmHg 65%
    20:00 +14°C° 0 mm 2 mps 753 mmHg 72%
    21:00 +12°C° 0 mm 3 mps 753 mmHg 73%
    22:00 +12°C° 0 mm 3 mps 754 mmHg 73%
    23:00 +11°C° 0 mm 4 mps 754 mmHg 73%
    Show more